When you browse on this site, cookies collect data to enhance your experience and personalize the content and advertising you see.
Visit our Privacy Policy to learn more. By continuing to use the site, you agree to this use of cookies and data.
  • In Portugal
  • List of Countries
  • For 7 days
  • Water Temperature
  • Satellite Maps
  • Weather Map
  • Weather Widgets
  • user-avatar
    Login

    Hourly Weather Uige

    Today, 16 December, Sunday

    Time Temperature Precipitation Wind Pressure Humidity
    00:00 +19°C° 0 mm 0 mps 693 mmHg 98%
    01:00 +19°C° 0 mm 0 mps 692 mmHg 98%
    02:00 +19°C° 0 mm 0 mps 692 mmHg 97%
    03:00 +19°C° 0 mm 0 mps 692 mmHg 97%
    04:00 +19°C° 0 mm 0 mps 692 mmHg 97%
    05:00 +19°C° 0 mm 0 mps 692 mmHg 96%
    06:00 +20°C° 0 mm 0 mps 693 mmHg 95%
    07:00 +20°C° 0 mm 0 mps 693 mmHg 95%
    08:00 +24°C° 0.3 mm 1 mps 693 mmHg 87%
    09:00 +26°C° 0.3 mm 1 mps 693 mmHg 79%
    10:00 +28°C° 0.3 mm 1 mps 694 mmHg 71%
    11:00 +28°C° 1.1 mm 2 mps 693 mmHg 76%
    12:00 +28°C° 1.1 mm 2 mps 693 mmHg 80%
    13:00 +28°C° 1.1 mm 2 mps 692 mmHg 84%
    14:00 +28°C° 1.4 mm 2 mps 692 mmHg 86%
    15:00 +27°C° 1.4 mm 2 mps 691 mmHg 88%
    16:00 +26°C° 1.4 mm 1 mps 691 mmHg 90%
    17:00 +25°C° 0.7 mm 1 mps 691 mmHg 92%
    18:00 +24°C° 0.7 mm 1 mps 691 mmHg 94%
    19:00 +23°C° 0.7 mm 1 mps 692 mmHg 96%
    20:00 +23°C° 0.3 mm 1 mps 692 mmHg 96%
    21:00 +22°C° 0.3 mm 1 mps 692 mmHg 97%
    22:00 +20°C° 0.3 mm 0 mps 693 mmHg 97%
    23:00 +22°C° 0.4 mm 1 mps 693 mmHg 97%

    Tomorrow, 17 December, Monday

    Time Temperature Precipitation Wind Pressure Humidity
    00:00 +22°C° 0.4 mm 1 mps 693 mmHg 98%
    01:00 +22°C° 0.4 mm 1 mps 693 mmHg 98%
    02:00 +22°C° 0.5 mm 1 mps 693 mmHg 98%
    03:00 +22°C° 0.5 mm 1 mps 692 mmHg 99%
    04:00 +22°C° 0.5 mm 1 mps 692 mmHg 99%
    05:00 +22°C° 0.3 mm 1 mps 692 mmHg 98%
    06:00 +22°C° 0.3 mm 1 mps 693 mmHg 98%
    07:00 +22°C° 0.3 mm 1 mps 693 mmHg 98%
    08:00 +23°C° 0.3 mm 1 mps 693 mmHg 95%
    09:00 +23°C° 0.3 mm 1 mps 694 mmHg 93%
    10:00 +24°C° 0.3 mm 1 mps 694 mmHg 91%
    11:00 +25°C° 0.3 mm 1 mps 693 mmHg 85%
    12:00 +26°C° 0.3 mm 1 mps 693 mmHg 80%
    13:00 +27°C° 0.3 mm 2 mps 693 mmHg 75%
    14:00 +27°C° 0.3 mm 1 mps 692 mmHg 75%
    15:00 +27°C° 0.3 mm 1 mps 692 mmHg 75%
    16:00 +27°C° 0.3 mm 1 mps 691 mmHg 76%
    17:00 +26°C° 0.3 mm 1 mps 691 mmHg 80%
    18:00 +22°C° 0.3 mm 0 mps 691 mmHg 85%
    19:00 +21°C° 0.3 mm 0 mps 692 mmHg 90%
    20:00 +21°C° 0.1 mm 0 mps 692 mmHg 90%
    21:00 +20°C° 0.1 mm 0 mps 692 mmHg 90%
    22:00 +22°C° 0.1 mm 1 mps 693 mmHg 91%
    23:00 +22°C° 0 mm 1 mps 692 mmHg 91%

    Day after tomorrow, 18 December, Tuesday

    Time Temperature Precipitation Wind Pressure Humidity
    00:00 +22°C° 0 mm 1 mps 692 mmHg 91%
    01:00 +22°C° 0 mm 1 mps 692 mmHg 92%
    02:00 +21°C° 0 mm 1 mps 691 mmHg 93%
    03:00 +21°C° 0 mm 1 mps 691 mmHg 94%
    04:00 +20°C° 0 mm 1 mps 691 mmHg 95%
    05:00 +19°C° 0 mm 0 mps 691 mmHg 93%
    06:00 +20°C° 0 mm 0 mps 692 mmHg 90%
    07:00 +21°C° 0 mm 0 mps 693 mmHg 88%
    08:00 +22°C° 0.1 mm 0 mps 693 mmHg 83%
    09:00 +24°C° 0.1 mm 0 mps 693 mmHg 77%
    10:00 +28°C° 0.1 mm 1 mps 694 mmHg 71%
    11:00 +28°C° 0.9 mm 1 mps 693 mmHg 76%
    12:00 +27°C° 0.9 mm 1 mps 693 mmHg 80%
    13:00 +27°C° 0.9 mm 1 mps 692 mmHg 85%
    14:00 +27°C° 1.2 mm 1 mps 692 mmHg 87%
    15:00 +26°C° 1.2 mm 1 mps 691 mmHg 90%
    16:00 +25°C° 1.2 mm 1 mps 690 mmHg 92%
    17:00 +24°C° 0.4 mm 1 mps 691 mmHg 94%
    18:00 +24°C° 0.4 mm 1 mps 691 mmHg 96%
    19:00 +23°C° 0.4 mm 1 mps 691 mmHg 97%
    20:00 +22°C° 0 mm 1 mps 691 mmHg 98%
    21:00 +22°C° 0 mm 1 mps 692 mmHg 98%
    22:00 +22°C° 0 mm 1 mps 693 mmHg 98%
    23:00 +22°C° 0 mm 1 mps 692 mmHg 98%

    19 December, Wednesday

    Time Temperature Precipitation Wind Pressure Humidity
    00:00 +22°C° 0 mm 1 mps 692 mmHg 99%
    01:00 +21°C° 0 mm 1 mps 691 mmHg 99%
    02:00 +22°C° 0 mm 1 mps 691 mmHg 99%
    03:00 +22°C° 0 mm 1 mps 691 mmHg 99%
    04:00 +22°C° 0 mm 1 mps 691 mmHg 99%
    05:00 +22°C° 0 mm 1 mps 692 mmHg 98%
    06:00 +22°C° 0 mm 1 mps 692 mmHg 98%
    07:00 +22°C° 0 mm 1 mps 693 mmHg 98%
    08:00 +23°C° 0 mm 1 mps 693 mmHg 94%
    09:00 +24°C° 0 mm 2 mps 693 mmHg 90%
    10:00 +25°C° 0 mm 2 mps 693 mmHg 86%
    11:00 +26°C° 0.2 mm 2 mps 693 mmHg 81%
    12:00 +27°C° 0.2 mm 2 mps 692 mmHg 77%
    13:00 +28°C° 0.2 mm 2 mps 692 mmHg 72%
    14:00 +27°C° 1 mm 2 mps 691 mmHg 79%
    15:00 +26°C° 1 mm 2 mps 691 mmHg 86%
    16:00 +25°C° 1 mm 2 mps 690 mmHg 93%
    17:00 +24°C° 0.3 mm 1 mps 690 mmHg 94%
    18:00 +23°C° 0.3 mm 1 mps 691 mmHg 96%
    19:00 +22°C° 0.3 mm 1 mps 691 mmHg 98%
    20:00 +22°C° 0.4 mm 1 mps 692 mmHg 98%
    21:00 +22°C° 0.4 mm 1 mps 692 mmHg 98%
    22:00 +22°C° 0.4 mm 1 mps 693 mmHg 99%
    23:00 +22°C° 0.8 mm 1 mps 692 mmHg 99%

    20 December, Thursday

    Time Temperature Precipitation Wind Pressure Humidity
    00:00 +22°C° 0.8 mm 1 mps 692 mmHg 99%
    01:00 +22°C° 0.8 mm 1 mps 692 mmHg 99%
    02:00 +22°C° 0.2 mm 1 mps 691 mmHg 99%
    03:00 +22°C° 0.2 mm 1 mps 691 mmHg 99%
    04:00 +22°C° 0.2 mm 1 mps 691 mmHg 99%
    05:00 +22°C° 0.1 mm 1 mps 692 mmHg 98%
    06:00 +22°C° 0.1 mm 1 mps 692 mmHg 98%
    07:00 +22°C° 0.1 mm 1 mps 693 mmHg 97%
    08:00 +23°C° 0 mm 1 mps 693 mmHg 93%
    09:00 +24°C° 0 mm 1 mps 693 mmHg 88%
    10:00 +25°C° 0 mm 1 mps 693 mmHg 83%
    11:00 +26°C° 0 mm 2 mps 693 mmHg 75%
    12:00 +28°C° 0 mm 2 mps 692 mmHg 67%
    13:00 +29°C° 0 mm 2 mps 692 mmHg 59%
    14:00 +28°C° 0.4 mm 2 mps 691 mmHg 67%
    15:00 +28°C° 0.4 mm 2 mps 691 mmHg 75%
    16:00 +27°C° 0.4 mm 2 mps 690 mmHg 83%
    17:00 +25°C° 0.4 mm 1 mps 690 mmHg 88%
    18:00 +24°C° 0.4 mm 1 mps 691 mmHg 92%
    19:00 +22°C° 0.4 mm 1 mps 691 mmHg 96%
    20:00 +22°C° 0.1 mm 1 mps 691 mmHg 96%
    21:00 +22°C° 0.1 mm 1 mps 692 mmHg 96%
    22:00 +21°C° 0.1 mm 1 mps 692 mmHg 97%
    23:00 +21°C° 0.1 mm 1 mps 692 mmHg 97%

    21 December, Friday

    Time Temperature Precipitation Wind Pressure Humidity
    00:00 +21°C° 0.1 mm 1 mps 692 mmHg 98%
    01:00 +21°C° 0.1 mm 1 mps 691 mmHg 99%
    02:00 +20°C° 0.1 mm 1 mps 691 mmHg 99%
    03:00 +20°C° 0.1 mm 1 mps 691 mmHg 99%
    04:00 +20°C° 0.1 mm 1 mps 691 mmHg 99%
    05:00 +20°C° 0 mm 1 mps 692 mmHg 98%
    06:00 +21°C° 0 mm 1 mps 692 mmHg 97%
    07:00 +21°C° 0 mm 1 mps 692 mmHg 96%
    08:00 +23°C° 0 mm 1 mps 692 mmHg 86%
    09:00 +25°C° 0 mm 1 mps 693 mmHg 76%
    10:00 +27°C° 0 mm 2 mps 693 mmHg 66%
    11:00 +28°C° 0.1 mm 2 mps 692 mmHg 63%
    12:00 +29°C° 0.1 mm 2 mps 691 mmHg 60%
    13:00 +30°C° 0.1 mm 3 mps 691 mmHg 57%
    14:00 +29°C° 0.6 mm 2 mps 690 mmHg 66%
    15:00 +27°C° 0.6 mm 2 mps 690 mmHg 75%
    16:00 +26°C° 0.6 mm 2 mps 689 mmHg 84%
    17:00 +25°C° 1 mm 2 mps 689 mmHg 88%
    18:00 +24°C° 1 mm 1 mps 690 mmHg 92%
    19:00 +22°C° 1 mm 1 mps 690 mmHg 95%
    20:00 +22°C° 0.6 mm 1 mps 690 mmHg 96%
    21:00 +22°C° 0.6 mm 1 mps 691 mmHg 96%
    22:00 +22°C° 0.6 mm 1 mps 691 mmHg 97%
    23:00 +22°C° 0.2 mm 1 mps 691 mmHg 97%
    Show more